Howell, MI

12:43 PM EST on December 09, 2016 (GMT -0500)
Livingston County

Weather History for KOZW - January, 2011

Change the Weather History Date:

Thursday, January 27, 2011

  Actual Average Record
Temperature  
Mean Temperature 26 °F -  
Max Temperature 28 °F 30 °F 59 °F (2002)
Min Temperature 23 °F 16 °F -8 °F (2014)
Degree Days  
Heating Degree Days 40    
Moisture  
Dew Point 23 °F    
Average Humidity 86    
Maximum Humidity 93    
Minimum Humidity 80    
Precipitation  
Precipitation 0.00 in - - ()
Sea Level Pressure  
Sea Level Pressure 29.84 in    
Wind  
Wind Speed 5 mph (SW)    
Max Wind Speed 10 mph    
Max Gust Speed -    
Visibility 4 miles    
Events Snow    
Averages and records for this station are not official NWS values.
T = Trace of Precipitation, MM = Missing Value Source: NWS Daily Summary

Daily Weather History Graph

Daily Weather History Graph

Search for Another Location

Airport or City:

Trip Planner

Search our weather history database for the weather conditions in past years. The results will help you decide how hot, cold, wet, or windy it might be!

Date:

Astronomy

Jan. 27, 2011 Rise Set
Actual Time 7:55 AM EST 5:42 PM EST
Civil Twilight 7:24 AM EST 6:12 PM EST
Nautical Twilight 6:50 AM EST 6:47 PM EST
Astronomical Twilight 6:17 AM EST 7:20 PM EST
Moon 2:24 AM EST (1/27) 11:58 AM EST (1/27)
Length of Visible Light 10h 48m
Length of Day
9h 47m
Last Quarter, 37% of the Moon is Illuminated
Jan 27
Last Quarter
Feb 2
New
Feb 11
First Quarter
Feb 18
Full
Feb 24
Last Quarter

Hourly Weather History & Observations

Time (EST) Temp. Windchill Dew Point Humidity Pressure Visibility Wind Dir Wind Speed Gust Speed Precip Events Conditions
12:15 AM 28.4 °F 24.6 °F 23.0 °F 80% 29.91 in 7.0 mi West 3.5 mph - N/A   Overcast
12:35 AM 28.4 °F 24.6 °F 23.0 °F 80% 29.91 in 7.0 mi WSW 3.5 mph - N/A   Overcast
12:54 AM 28.4 °F - 23.0 °F 80% 29.91 in 7.0 mi Calm Calm - N/A   Overcast
1:15 AM 28.4 °F 23.3 °F 23.0 °F 80% 29.91 in 7.0 mi WSW 4.6 mph - N/A   Overcast
1:35 AM 28.4 °F 24.6 °F 23.0 °F 80% 29.91 in 7.0 mi WSW 3.5 mph - N/A   Overcast
1:54 AM 28.4 °F 23.3 °F 23.0 °F 80% 29.91 in 7.0 mi WSW 4.6 mph - N/A   Overcast
2:15 AM 28.4 °F 22.2 °F 23.0 °F 80% 29.91 in 7.0 mi WSW 5.8 mph - N/A   Overcast
2:35 AM 28.4 °F 24.6 °F 23.0 °F 80% 29.91 in 7.0 mi WSW 3.5 mph - N/A   Overcast
2:54 AM 28.4 °F 22.2 °F 23.0 °F 80% 29.91 in 7.0 mi SW 5.8 mph - N/A   Overcast
3:15 AM 28.4 °F 22.2 °F 23.0 °F 80% 29.90 in 7.0 mi WSW 5.8 mph - N/A   Overcast
3:34 AM 26.6 °F 21.2 °F 23.0 °F 86% 29.90 in 5.0 mi WSW 4.6 mph - N/A   Overcast
3:55 AM 26.6 °F - 23.0 °F 86% 29.89 in 5.0 mi Calm Calm - N/A   Overcast
4:15 AM 26.6 °F - 24.8 °F 93% 29.88 in 5.0 mi Calm Calm - N/A   Overcast
4:34 AM 26.6 °F - 24.8 °F 93% 29.88 in 5.0 mi Calm Calm - N/A Snow Light Snow
4:55 AM 28.4 °F 24.6 °F 24.8 °F 86% 29.87 in 5.0 mi SSW 3.5 mph - N/A Snow Light Snow
5:15 AM 28.4 °F 21.2 °F 24.8 °F 86% 29.87 in 4.0 mi South 6.9 mph - N/A Snow Light Snow
5:34 AM 28.4 °F 21.2 °F 24.8 °F 86% 29.88 in 4.0 mi SSW 6.9 mph - N/A Snow Light Snow
5:55 AM 28.4 °F 22.2 °F 26.6 °F 93% 29.88 in 5.0 mi SSW 5.8 mph - N/A Snow Light Snow
6:15 AM 28.4 °F 21.2 °F 24.8 °F 86% 29.88 in 5.0 mi WSW 6.9 mph - N/A Snow Light Snow
6:34 AM 28.4 °F 21.2 °F 24.8 °F 86% 29.88 in 5.0 mi SW 6.9 mph - N/A Snow Light Snow
6:55 AM 28.4 °F 20.4 °F 24.8 °F 86% 29.88 in 5.0 mi SW 8.1 mph - N/A Snow Light Snow
7:15 AM 26.6 °F 18.2 °F 24.8 °F 93% 29.88 in 5.0 mi SW 8.1 mph - N/A Snow Light Snow
7:34 AM 26.6 °F 18.2 °F 24.8 °F 93% 29.88 in 5.0 mi SW 8.1 mph - N/A   Overcast
7:55 AM 26.6 °F 18.2 °F 23.0 °F 86% 29.88 in 5.0 mi SW 8.1 mph - N/A   Overcast
8:15 AM 26.6 °F 18.2 °F 23.0 °F 86% 29.88 in 4.0 mi SW 8.1 mph - N/A Snow Light Snow
8:34 AM 26.6 °F 19.1 °F 23.0 °F 86% 29.88 in 3.0 mi SW 6.9 mph - N/A   Overcast
8:55 AM 26.6 °F 19.1 °F 23.0 °F 86% 29.87 in 4.0 mi SW 6.9 mph - N/A Snow Light Snow
9:15 AM 26.6 °F 21.2 °F 23.0 °F 86% 29.87 in 3.0 mi SSW 4.6 mph - N/A Snow Light Snow
9:35 AM 26.6 °F 18.2 °F 23.0 °F 86% 29.87 in 3.0 mi SW 8.1 mph - N/A Snow Light Snow
9:55 AM 26.6 °F 16.8 °F 23.0 °F 86% 29.87 in 3.0 mi SW 10.4 mph - N/A Snow Light Snow
10:14 AM 26.6 °F 18.2 °F 23.0 °F 86% 29.86 in 2.5 mi SW 8.1 mph - N/A Snow Light Snow
10:35 AM 26.6 °F 21.2 °F 23.0 °F 86% 29.86 in 3.0 mi SW 4.6 mph - N/A Snow Light Snow
10:55 AM 26.6 °F 18.2 °F 23.0 °F 86% 29.85 in 3.0 mi SSW 8.1 mph - N/A   Overcast
11:14 AM 26.6 °F 19.1 °F 23.0 °F 86% 29.85 in 3.0 mi SSW 6.9 mph - N/A Snow Light Snow
11:35 AM 26.6 °F 19.1 °F 23.0 °F 86% 29.83 in 1.5 mi SSW 6.9 mph - N/A Snow Light Snow
11:55 AM 26.6 °F 17.5 °F 23.0 °F 86% 29.82 in 1.8 mi South 9.2 mph - N/A Snow Light Snow
12:14 PM 26.6 °F 18.2 °F 23.0 °F 86% 29.81 in 2.0 mi South 8.1 mph - N/A Snow Light Snow
12:35 PM 26.6 °F 19.1 °F 23.0 °F 86% 29.80 in 1.0 mi SW 6.9 mph - N/A Snow Light Snow
12:55 PM 26.6 °F 18.2 °F 23.0 °F 86% 29.79 in 1.0 mi SSW 8.1 mph - N/A Snow Light Snow
1:14 PM 26.6 °F 21.2 °F 23.0 °F 86% 29.78 in 2.5 mi SSW 4.6 mph - N/A Snow Light Snow
1:35 PM 26.6 °F 19.1 °F 23.0 °F 86% 29.78 in 1.2 mi SW 6.9 mph - N/A Snow Light Snow
1:55 PM 26.6 °F 18.2 °F 21.2 °F 80% 29.77 in 0.8 mi SW 8.1 mph - N/A Snow Light Snow
2:14 PM 26.6 °F 18.2 °F 23.0 °F 86% 29.77 in 0.8 mi WSW 8.1 mph - N/A Snow Light Snow
2:35 PM 24.8 °F 16.9 °F 21.2 °F 86% 29.76 in 0.8 mi WSW 6.9 mph - N/A Snow Light Snow
2:55 PM 23.0 °F 17.0 °F 21.2 °F 93% 29.75 in 0.8 mi SW 4.6 mph - N/A Snow Light Snow
3:15 PM 24.8 °F 19.1 °F 21.2 °F 86% 29.75 in 1.0 mi SW 4.6 mph - N/A Snow Light Snow
3:35 PM 24.8 °F 17.9 °F 21.2 °F 86% 29.75 in 1.5 mi SW 5.8 mph - N/A Snow Light Snow
3:54 PM 23.0 °F 14.7 °F 19.4 °F 86% 29.75 in 3.0 mi WSW 6.9 mph - N/A Snow Light Snow
4:15 PM 23.0 °F 15.8 °F 19.4 °F 86% 29.75 in 1.5 mi SW 5.8 mph - N/A Snow Light Snow
4:35 PM 23.0 °F 13.9 °F 19.4 °F 86% 29.75 in 1.0 mi SW 8.1 mph - N/A Snow Light Snow
4:54 PM 23.0 °F 14.7 °F 19.4 °F 86% 29.75 in 1.8 mi SW 6.9 mph - N/A Snow Light Snow
5:15 PM 23.0 °F 15.8 °F 19.4 °F 86% 29.75 in 2.0 mi SW 5.8 mph - N/A Snow Light Snow
5:35 PM 23.0 °F 15.8 °F 19.4 °F 86% 29.75 in 2.5 mi SW 5.8 mph - N/A Snow Light Snow
5:54 PM 23.0 °F 18.4 °F 19.4 °F 86% 29.75 in 3.0 mi SW 3.5 mph - N/A Snow Light Snow
6:15 PM 23.0 °F - 21.2 °F 93% 29.75 in 4.0 mi Calm Calm - N/A Snow Light Snow
6:35 PM 23.0 °F - 21.2 °F 93% 29.75 in 7.0 mi Calm Calm - N/A Snow Light Snow
6:54 PM 23.0 °F 18.4 °F 21.2 °F 93% 29.75 in 7.0 mi SSW 3.5 mph - N/A   Overcast
7:15 PM 23.0 °F - 21.2 °F 93% 29.75 in 7.0 mi Calm Calm - N/A   Overcast
7:34 PM 23.0 °F - 21.2 °F 93% 29.75 in 7.0 mi Calm Calm - N/A   Overcast
7:55 PM 23.0 °F - 21.2 °F 93% 29.75 in 7.0 mi Calm Calm - N/A   Overcast
8:14 PM 23.0 °F - 21.2 °F 93% 29.75 in 7.0 mi Calm Calm - N/A   Overcast
8:34 PM 23.0 °F - 21.2 °F 93% 29.75 in 7.0 mi Calm Calm - N/A   Overcast
8:55 PM 23.0 °F 18.4 °F 21.2 °F 93% 29.74 in 7.0 mi SSW 3.5 mph - N/A   Overcast
9:15 PM 23.0 °F - 21.2 °F 93% 29.74 in 5.0 mi Calm Calm - N/A   Overcast
9:34 PM 23.0 °F - 21.2 °F 93% 29.74 in 5.0 mi Calm Calm - N/A   Overcast
9:55 PM 23.0 °F - 21.2 °F 93% 29.74 in 4.0 mi Calm Calm - N/A   Overcast
10:15 PM 23.0 °F 18.4 °F 21.2 °F 93% 29.74 in 3.0 mi SW 3.5 mph - N/A   Overcast
10:35 PM 23.0 °F 18.4 °F 21.2 °F 93% 29.74 in 2.5 mi SW 3.5 mph - N/A   Overcast
10:55 PM 23.0 °F - 23.0 °F 100% 29.73 in 2.5 mi Calm Calm - N/A   Overcast
11:15 PM 23.0 °F - 23.0 °F 100% 29.73 in 2.5 mi Calm Calm - N/A   Overcast
11:35 PM 23.0 °F - 23.0 °F 100% 29.73 in 3.0 mi Calm Calm - N/A   Overcast
11:55 PM 23.0 °F - 23.0 °F 100% 29.73 in 3.0 mi Calm Calm - N/A   Overcast